Lynchburg, VA

4:53 PM EDT on April 20, 2018 (GMT -0400)
Lynchburg Regional-Glenn

Weather History for KLYH - March, 2013

Change the Weather History Date:

Sunday, March 3, 2013

  Actual Average Record
Temperature  
Mean Temperature 31 °F 42 °F  
Max Temperature 43 °F 53 °F 81 °F (1976)
Min Temperature 19 °F 30 °F 5 °F (2009)
Degree Days  
Heating Degree Days 34 23  
Month to date heating degree days 95 70  
Since 1 July heating degree days 3270 3494  
Cooling Degree Days 0 0  
Month to date cooling degree days 0 0  
Year to date cooling degree days 0 0  
Moisture  
Dew Point 15 °F    
Average Humidity 59    
Maximum Humidity 84    
Minimum Humidity 33    
Precipitation  
Precipitation 0.00 in 0.10 in 1.69 in (1991)
Month to date precipitation 0.00 0.31  
Year to date precipitation 7.63 6.38  
Snow  
Snow 0.00 in - - ()
Month to date snowfall 0.0  
Since 1 July snowfall 3.4  
Snow Depth 0.00 in    
Sea Level Pressure  
Sea Level Pressure 29.91 in    
Wind  
Wind Speed 4 mph (WNW)    
Max Wind Speed 15 mph    
Max Gust Speed 23 mph    
Visibility 10 miles    
Events      
T = Trace of Precipitation, MM = Missing Value Source: NWS Daily Summary

Daily Weather History Graph

Daily Weather History Graph

Search for Another Location

Airport or City:

Astronomy

Mar. 03, 2013 Rise Set
Actual Time 6:44 AM EST 6:12 PM EST
Civil Twilight 6:18 AM EST 6:39 PM EST
Nautical Twilight 5:48 AM EST 7:09 PM EST
Astronomical Twilight 5:18 AM EST 7:39 PM EST
Moon No Moon Rise 10:07 AM EST (3/3)
Length of Visible Light 12h 20m
Length of Day
11h 28m
Waning Gibbous, 64% of the Moon is Illuminated
Mar 3
Waning Gibbous
Mar 4
Last Quarter
Mar 11
New
Mar 19
First Quarter
Mar 27
Full

Hourly Weather History & Observations

Time (EST) Temp. Windchill Dew Point Humidity Pressure Visibility Wind Dir Wind Speed Gust Speed Precip Events Conditions
12:54 AM 28.0 °F - 17.1 °F 63% 29.90 in 10.0 mi Calm Calm - N/A   Clear
1:54 AM 24.1 °F - 17.1 °F 75% 29.91 in 10.0 mi Calm Calm - N/A   Clear
2:54 AM 25.0 °F - 16.0 °F 69% 29.89 in 10.0 mi Calm Calm - N/A   Clear
3:54 AM 21.9 °F - 16.0 °F 78% 29.88 in 10.0 mi Calm Calm - N/A   Clear
4:54 AM 19.9 °F - 15.1 °F 81% 29.89 in 10.0 mi Calm Calm - N/A   Clear
5:54 AM 21.0 °F - 15.1 °F 78% 29.90 in 10.0 mi Calm Calm - N/A   Clear
6:54 AM 21.2 °F - 15.8 °F 80% 29.89 in 10.0 mi Calm Calm - N/A   Clear
7:54 AM 32.0 °F - 18.0 °F 56% 29.92 in 10.0 mi Calm Calm - N/A   Clear
8:54 AM 35.1 °F 30.1 °F 16.0 °F 46% 29.92 in 10.0 mi Variable 5.8 mph - N/A   Clear
9:54 AM 37.0 °F 32.4 °F 16.0 °F 42% 29.92 in 10.0 mi Variable 5.8 mph 17.3 mph N/A   Clear
10:54 AM 39.0 °F 35.7 °F 16.0 °F 39% 29.91 in 10.0 mi Variable 4.6 mph - N/A   Scattered Clouds
11:54 AM 39.0 °F 34.8 °F 16.0 °F 39% 29.90 in 10.0 mi Variable 5.8 mph - N/A   Partly Cloudy
12:54 PM 41.0 °F 35.8 °F 17.1 °F 38% 29.88 in 10.0 mi SW 8.1 mph - N/A   Partly Cloudy
1:54 PM 42.1 °F 37.7 °F 16.0 °F 35% 29.86 in 10.0 mi Variable 6.9 mph 17.3 mph N/A   Clear
2:54 PM 42.1 °F 36.6 °F 16.0 °F 35% 29.85 in 10.0 mi West 9.2 mph 20.7 mph N/A   Partly Cloudy
3:54 PM 42.1 °F 36.6 °F 16.0 °F 35% 29.86 in 10.0 mi WNW 9.2 mph 17.3 mph N/A   Mostly Cloudy
4:54 PM 39.0 °F 34.8 °F 15.1 °F 38% 29.88 in 10.0 mi Variable 5.8 mph 17.3 mph N/A   Mostly Cloudy
5:54 PM 35.1 °F 28.6 °F 14.0 °F 42% 29.91 in 10.0 mi West 8.1 mph - N/A   Clear
6:54 PM 32.0 °F 26.4 °F 14.0 °F 48% 29.93 in 10.0 mi WNW 5.8 mph - N/A   Clear
7:54 PM 30.0 °F 26.5 °F 14.0 °F 51% 29.94 in 10.0 mi WNW 3.5 mph - N/A   Clear
8:54 PM 28.9 °F - 12.9 °F 51% 29.96 in 10.0 mi Calm Calm - N/A   Clear
9:54 PM 28.9 °F 25.2 °F 12.0 °F 49% 29.97 in 10.0 mi WNW 3.5 mph - N/A   Clear
10:54 PM 28.9 °F 23.9 °F 12.0 °F 49% 29.96 in 10.0 mi NW 4.6 mph - N/A   Clear
11:54 PM 30.0 °F 24.1 °F 10.0 °F 43% 29.97 in 10.0 mi Variable 5.8 mph - N/A   Clear